When you browse on this site, cookies collect data to enhance your experience and personalize the content and advertising you see.
Visit our Privacy Policy to learn more. By continuing to use the site, you agree to this use of cookies and data.
  • In Latvia
  • List of Countries
  • For 7 days
  • Water Temperature
  • Satellite Maps
  • Weather Map
  • Weather Widgets
  • user-avatar
    Login

    Hourly Weather Malanje

    Today, 20 July, Saturday

    Time Temperature Precipitation Wind Pressure Humidity
    00:00 +16°C° 0 mm 1 mps 665 mmHg 31%
    01:00 +15°C° 0 mm 1 mps 665 mmHg 35%
    02:00 +14°C° 0 mm 1 mps 665 mmHg 43%
    03:00 +14°C° 0 mm 1 mps 665 mmHg 52%
    04:00 +13°C° 0 mm 1 mps 665 mmHg 60%
    05:00 +13°C° 0 mm 1 mps 665 mmHg 54%
    06:00 +13°C° 0 mm 1 mps 666 mmHg 49%
    07:00 +14°C° 0 mm 1 mps 667 mmHg 43%
    08:00 +18°C° 0 mm 2 mps 667 mmHg 34%
    09:00 +23°C° 0 mm 2 mps 668 mmHg 26%
    10:00 +27°C° 0 mm 3 mps 669 mmHg 17%
    11:00 +29°C° 0 mm 2 mps 669 mmHg 15%
    12:00 +31°C° 0 mm 2 mps 668 mmHg 12%
    13:00 +34°C° 0 mm 2 mps 668 mmHg 10%
    14:00 +34°C° 0 mm 2 mps 667 mmHg 10%
    15:00 +34°C° 0 mm 2 mps 667 mmHg 9%
    16:00 +33°C° 0 mm 1 mps 666 mmHg 9%
    17:00 +29°C° 0 mm 1 mps 666 mmHg 12%
    18:00 +25°C° 0 mm 1 mps 665 mmHg 14%
    19:00 +20°C° 0 mm 0 mps 665 mmHg 17%
    20:00 +19°C° 0 mm 0 mps 665 mmHg 19%
    21:00 +18°C° 0 mm 0 mps 666 mmHg 20%
    22:00 +17°C° 0 mm 0 mps 666 mmHg 22%
    23:00 +16°C° 0 mm 0 mps 665 mmHg 31%

    Tomorrow, 21 July, Sunday

    Time Temperature Precipitation Wind Pressure Humidity
    00:00 +16°C° 0 mm 1 mps 665 mmHg 40%
    01:00 +15°C° 0 mm 1 mps 665 mmHg 49%
    02:00 +14°C° 0 mm 1 mps 665 mmHg 59%
    03:00 +14°C° 0 mm 1 mps 665 mmHg 70%
    04:00 +13°C° 0 mm 1 mps 665 mmHg 80%
    05:00 +13°C° 0 mm 1 mps 665 mmHg 76%
    06:00 +14°C° 0 mm 1 mps 666 mmHg 72%
    07:00 +14°C° 0 mm 1 mps 667 mmHg 68%
    08:00 +20°C° 0 mm 1 mps 667 mmHg 50%
    09:00 +24°C° 0 mm 1 mps 668 mmHg 33%
    10:00 +28°C° 0 mm 2 mps 669 mmHg 16%
    11:00 +31°C° 0 mm 2 mps 669 mmHg 14%
    12:00 +33°C° 0 mm 1 mps 669 mmHg 12%
    13:00 +35°C° 0 mm 1 mps 668 mmHg 10%
    14:00 +35°C° 0 mm 1 mps 668 mmHg 10%
    15:00 +35°C° 0 mm 1 mps 667 mmHg 10%
    16:00 +32°C° 0 mm 0 mps 666 mmHg 10%
    17:00 +29°C° 0 mm 0 mps 666 mmHg 13%
    18:00 +25°C° 0 mm 0 mps 666 mmHg 16%
    19:00 +21°C° 0 mm 0 mps 665 mmHg 19%
    20:00 +22°C° 0 mm 1 mps 665 mmHg 25%
    21:00 +20°C° 0 mm 2 mps 665 mmHg 31%
    22:00 +19°C° 0 mm 2 mps 666 mmHg 37%
    23:00 +18°C° 0 mm 2 mps 665 mmHg 46%

    Day after tomorrow, 22 July, Monday

    Time Temperature Precipitation Wind Pressure Humidity
    00:00 +18°C° 0 mm 1 mps 665 mmHg 55%
    01:00 +16°C° 0 mm 1 mps 665 mmHg 64%
    02:00 +15°C° 0 mm 1 mps 664 mmHg 69%
    03:00 +14°C° 0 mm 1 mps 664 mmHg 74%
    04:00 +14°C° 0 mm 1 mps 664 mmHg 79%
    05:00 +14°C° 0 mm 1 mps 665 mmHg 77%
    06:00 +15°C° 0 mm 1 mps 665 mmHg 75%
    07:00 +15°C° 0 mm 1 mps 666 mmHg 73%
    08:00 +20°C° 0 mm 1 mps 667 mmHg 55%
    09:00 +24°C° 0 mm 1 mps 667 mmHg 37%
    10:00 +29°C° 0 mm 2 mps 668 mmHg 19%
    11:00 +31°C° 0 mm 2 mps 668 mmHg 16%
    12:00 +34°C° 0 mm 2 mps 668 mmHg 13%
    13:00 +37°C° 0 mm 2 mps 667 mmHg 11%
    14:00 +36°C° 0 mm 2 mps 666 mmHg 11%
    15:00 +35°C° 0 mm 1 mps 666 mmHg 10%
    16:00 +35°C° 0 mm 1 mps 665 mmHg 10%
    17:00 +31°C° 0 mm 1 mps 665 mmHg 14%
    18:00 +27°C° 0 mm 1 mps 664 mmHg 17%
    19:00 +24°C° 0 mm 1 mps 664 mmHg 21%
    20:00 +22°C° 0 mm 1 mps 664 mmHg 33%
    21:00 +20°C° 0 mm 2 mps 664 mmHg 44%
    22:00 +18°C° 0 mm 2 mps 665 mmHg 56%
    23:00 +17°C° 0 mm 2 mps 664 mmHg 62%

    23 July, Tuesday

    Time Temperature Precipitation Wind Pressure Humidity
    00:00 +16°C° 0 mm 2 mps 664 mmHg 68%
    01:00 +15°C° 0 mm 1 mps 664 mmHg 74%
    02:00 +14°C° 0 mm 1 mps 664 mmHg 81%
    03:00 +14°C° 0 mm 1 mps 664 mmHg 87%
    04:00 +13°C° 0 mm 1 mps 664 mmHg 93%
    05:00 +13°C° 0 mm 1 mps 664 mmHg 91%
    06:00 +14°C° 0 mm 1 mps 665 mmHg 88%
    07:00 +14°C° 0 mm 1 mps 665 mmHg 86%
    08:00 +20°C° 0 mm 1 mps 666 mmHg 66%
    09:00 +25°C° 0 mm 1 mps 667 mmHg 47%
    10:00 +29°C° 0 mm 1 mps 669 mmHg 27%
    11:00 +32°C° 0 mm 1 mps 668 mmHg 22%
    12:00 +34°C° 0 mm 1 mps 668 mmHg 18%
    13:00 +36°C° 0 mm 1 mps 667 mmHg 14%
    14:00 +36°C° 0 mm 1 mps 667 mmHg 14%
    15:00 +35°C° 0 mm 1 mps 666 mmHg 13%
    16:00 +35°C° 0 mm 1 mps 666 mmHg 13%
    17:00 +31°C° 0 mm 1 mps 665 mmHg 17%
    18:00 +28°C° 0 mm 1 mps 665 mmHg 21%
    19:00 +24°C° 0 mm 1 mps 664 mmHg 25%
    20:00 +23°C° 0 mm 1 mps 665 mmHg 36%
    21:00 +20°C° 0 mm 2 mps 665 mmHg 47%
    22:00 +18°C° 0 mm 2 mps 665 mmHg 58%
    23:00 +17°C° 0 mm 2 mps 664 mmHg 63%

    24 July, Wednesday

    Time Temperature Precipitation Wind Pressure Humidity
    00:00 +16°C° 0 mm 2 mps 664 mmHg 68%
    01:00 +15°C° 0 mm 1 mps 664 mmHg 72%
    02:00 +15°C° 0 mm 1 mps 663 mmHg 77%
    03:00 +14°C° 0 mm 1 mps 663 mmHg 81%
    04:00 +12°C° 0 mm 0 mps 663 mmHg 86%
    05:00 +13°C° 0 mm 0 mps 664 mmHg 82%
    06:00 +14°C° 0 mm 0 mps 665 mmHg 79%
    07:00 +14°C° 0 mm 0 mps 665 mmHg 76%
    08:00 +19°C° 0 mm 0 mps 666 mmHg 59%
    09:00 +26°C° 0 mm 1 mps 667 mmHg 42%
    10:00 +31°C° 0 mm 1 mps 668 mmHg 25%
    11:00 +33°C° 0 mm 1 mps 668 mmHg 21%
    12:00 +35°C° 0 mm 1 mps 667 mmHg 17%
    13:00 +37°C° 0 mm 2 mps 667 mmHg 13%
    14:00 +37°C° 0 mm 2 mps 666 mmHg 13%
    15:00 +36°C° 0 mm 3 mps 666 mmHg 13%
    16:00 +36°C° 0 mm 3 mps 665 mmHg 13%
    17:00 +31°C° 0 mm 3 mps 665 mmHg 16%
    18:00 +28°C° 0 mm 2 mps 665 mmHg 18%
    19:00 +25°C° 0 mm 2 mps 665 mmHg 21%
    20:00 +24°C° 0 mm 2 mps 665 mmHg 28%
    21:00 +21°C° 0 mm 2 mps 665 mmHg 36%
    22:00 +19°C° 0 mm 2 mps 665 mmHg 43%
    23:00 +18°C° 0 mm 2 mps 664 mmHg 53%

    25 July, Thursday

    Time Temperature Precipitation Wind Pressure Humidity
    00:00 +18°C° 0 mm 1 mps 664 mmHg 63%
    01:00 +16°C° 0 mm 1 mps 663 mmHg 73%
    02:00 +15°C° 0 mm 1 mps 664 mmHg 76%
    03:00 +15°C° 0 mm 1 mps 664 mmHg 79%
    04:00 +14°C° 0 mm 1 mps 664 mmHg 82%
    05:00 +15°C° 0 mm 1 mps 664 mmHg 79%
    06:00 +14°C° 0 mm 0 mps 665 mmHg 76%
    07:00 +15°C° 0 mm 0 mps 666 mmHg 74%
    08:00 +20°C° 0 mm 0 mps 667 mmHg 57%
    09:00 +26°C° 0 mm 1 mps 668 mmHg 40%
    10:00 +31°C° 0 mm 1 mps 669 mmHg 23%
    11:00 +34°C° 0 mm 2 mps 668 mmHg 19%
    12:00 +35°C° 0 mm 2 mps 668 mmHg 14%
    13:00 +36°C° 0 mm 3 mps 667 mmHg 10%
    14:00 +36°C° 0 mm 3 mps 667 mmHg 10%
    15:00 +36°C° 0 mm 3 mps 666 mmHg 10%
    16:00 +35°C° 0 mm 3 mps 666 mmHg 9%
    17:00 +31°C° 0 mm 2 mps 665 mmHg 11%
    18:00 +28°C° 0 mm 1 mps 665 mmHg 14%
    19:00 +25°C° 0 mm 1 mps 665 mmHg 16%
    20:00 +23°C° 0 mm 1 mps 665 mmHg 28%
    21:00 +20°C° 0 mm 2 mps 665 mmHg 41%
    22:00 +19°C° 0 mm 2 mps 665 mmHg 53%
    23:00 +17°C° 0 mm 2 mps 665 mmHg 64%
    Show more